SL-14 DEB, 45653

Orbit data source: Space-Track

SL-14 DEB, 45653 is space debris in LEO originally from a launch on Thu, 15 Aug 1991 UTC launched from the Plesetsk Missile And Space Complex (PKMTR). Debris objects in space refer to the collection of defunct objects orbiting the Earth. Examples of debris include non-operational satellites, rocket bodies, and fragments generated from explosions, collisions, or faulty payload assembly.

Loading next visibility...
Identifier
45653, 1991-056CX
Orbit
LEO
Country
Flag of CISCIS
Related business
Manufacturer
Unknown
Mission
Spacecraft
Bus & Motor
Unknown
Mass
Unknown
Launch date (UTC)
1991-08-15 (34 years ago)
Launch vehicle
Unknown
Launch site
Plesetsk Missile And Space Complex (PKMTR)
Object type
Payload
Rocket body
Debris
Shape & HBR
Unknown shape, 0.1 m
Radar Cross Section
Small (<0.1 m²)

Expand to show TLE details & history
Last TLE update: 2 days ago

TLE from 2 days ago
0 SL-14 DEB
1 45653U 91056CX  25304.85916429  .00001392  00000-0  26850-2 0  9990
2 45653  82.5606 261.0196 0066513 146.4703 214.0667 13.35420809273264
Epoch: 2025-10-31T20:37Z
TLE epoch observation values (Epoch: 2025-10-31T20:37:11.794Z)
Latitude
-0.00006°
Longitude
-88.6771°
Altitude
1,170.68 km
Speed
7.248 km/s
True Right ascension
17h 24m 04s
True Declination
0° 00' 00"
Sunlit
Object was in daylight at epoch
Visualization orbit readout
Latitude
Unknown
Longitude
Unknown
Altitude
Unknown
Speed
Unknown
Apparent Right ascension
Unknown
Apparent Declination
Unknown
Sunlit
N/A
Visualization observer readout
Local Sidereal Time
23:58:17
Azimuth
Unknown
Elevation
Unknown
Doppler factor
Unknown
Orbital elements
Apogee altitude
1,173.501 km
Perigee altitude
1,073.708 km
Semi-major axis
7,501.741 km
Eccentricity
0.00665
Inclination
82.5606°
RAAN
261.0196°
Arg. of periapsis
146.4703°
True anomaly
213.64268°
Mean anomaly
214.0667°
Eccentric anomaly
213.8544°
Mean motion
3.34041 °/min
Orbital period
107.77 mins
BSTAR
0.002685
Loading maneuver chart data...
Computing Atmospheric mass density...
Loading historical data...
Loading historical data...
Loading historical data...
Loading historical data...
Loading historical data...
Loading historical data...
Loading historical data...

Documentation

Showing up to 5 results
|